Location: Pompeys Pillar
(45.9913°N, 107.9528°W)
Time: 03:55:46
(UTC+00:00)

Tiros 1 - Pass Details

Date: 28 May 2022
Orbit: 629 x 663 km, 48.4° (Epoch: 30 June)

Event Time Altitude Azimuth Distance (km) Brightness Sun altitude
Rises 09:51:22 0° 274° (W) 2,920 - -13.2°
Exits shadow 09:52:08 - 275° (W) 2,623 10.0 -13.1°
Reaches altitude 10° 09:53:42 10° 278° (W) 2,016 9.4 -12.9°
Maximum altitude 09:58:19 64° 360° (N) 708 7.5 -12.4°
Drops below altitude 10° 10:02:58 10° 82° (E) 2,035 10.5 -11.9°
Sets 10:05:20 0° 86° (E) 2,950 11.3 -11.6°
